Weather in Road Town

British Virgin Islands     18°25′34″N   64°37′19″W
temp.,
°C
wind,
m/s
gust,
m/s
humid.,
%
clouds,
%
prec.,
mm/h
press.,
hPa
HPBL,
m
21 october, thu
thu2123:00+28ese677787 3.3 1016624
02:00+29ese8871100 7.4 10141098
05:00+29ese7765100 0.1 10141139
08:00+28ese787288 0.1 10171053
11:00+29ese8974100 0.4 10171035
14:00+29ese897460 0.5 10151036
17:00+29ese78685 1.0 10151286
20:00+29ese89695 1.0 10161188
22 october, fri
fri2223:00+29ese99685 0.0 10171322
02:00+29ese9106570 0.1 10151535
05:00+28ese910658 0.0 10151504
08:00+28ese9106721 0.1 10171431
11:00+29ese996335 0.1 10171542
14:00+28ese88645 0.1 10151320
17:00+28e99635 0.1 10151347
20:00+29e89625 0.1 10161400
23 october, sat
sat2323:00+28e9106823 0.1 10161280
02:00+28e9107279 0.6 10151096
05:00+28e897222 0.9 10141125
08:00+28ese996539 1.1 10161431
11:00+28ese996593 0.0 10171353
14:00+28e7866100 0.0 10151282
17:00+28e786750 0.0 10141280
20:00+28e787116 0.0 10151147
24 october, sun
sun2423:00+28e897426 0.9 1015982
02:00+28ese787148 2.8 10141177
05:00+28e777338 0.8 10141030
08:00+29e8871100 1.4 10151126
11:00+28e887395 0.0 10161035
14:00+29e787471 0.1 10141021
17:00+28e787551 0.1 1014963
20:00+28ene78765 0.5 1016941
25 october, mon
mon2523:00+28e89777 0.9 1016909
02:00+28e787814 2.1 1015873
05:00+28e67747 0.7 1015937
08:00+28e77675 0.7 1016844
11:00+28ese677513 0.7 1016901
14:00+28ese567192 2.4 1014936
17:00+28ese566726 0.1 1014946
20:00+28e67744 0.1 1015940